Weather History for Rolla, MO

Change the Weather History Date:

Wednesday, June 12, 2013

  Actual Average Record
Temperature  
Mean Temperature 81 °F 72 °F  
Max Temperature 90 °F 82 °F 98 °F (1952)
Min Temperature 71 °F 61 °F 45 °F (1903)
Degree Days  
Heating Degree Days 0 1  
Month to date heating degree days 17 12  
Since 1 June heating degree days 17 12  
Since 1 July heating degree days 4957 4846  
Cooling Degree Days 16 7  
Month to date cooling degree days 35 70  
Year to date cooling degree days 142 177  
Since 1 June cooling degree days 35 70  
Growing Degree Days 30 (Base 50)    
Moisture  
Dew Point 69 °F    
Average Humidity 73    
Maximum Humidity 90    
Minimum Humidity 55    
Precipitation  
Precipitation 0.00 in 0.17 in 1.10 in (1977)
Month to date precipitation 0.94 1.95  
Year to date precipitation 22.24 18.76  
Sea Level Pressure  
Sea Level Pressure 29.84 in    
Wind  
Wind Speed 13 mph (SW)    
Max Wind Speed 23 mph    
Max Gust Speed 32 mph    
Visibility 10 miles    
Events      
T = Trace of Precipitation, MM = Missing Value Source: NWS Daily Summary

Daily Weather History Graph

Daily Weather History Graph

Search for Another Location

Airport:

Trip Planner

Search our weather history database for the weather conditions in past years. The results will help you decide how hot, cold, wet, or windy it might be!

Date:

Astronomy

Jun. 12, 2013 Rise Set
Actual Time 5:43 AM CDT 8:30 PM CDT
Civil Twilight 5:12 AM CDT 9:02 PM CDT
Nautical Twilight 4:32 AM CDT 9:41 PM CDT
Astronomical Twilight 3:47 AM CDT 10:26 PM CDT
Moon 9:20 AM CDT (6/12) 11:09 PM CDT (6/12)
Length of Visible Light 15h 50m
Length of Day
14h 47m
Waxing Crescent, 14% of the Moon is Illuminated
Jun 12
Waxing Crescent
Jun 16
First Quarter
Jun 23
Full
Jun 29
Last Quarter
Jul 8
New

Hourly Weather History & Observations

Time (CDT) Temp. Heat Index Dew Point Humidity Pressure Visibility Wind Dir Wind Speed Gust Speed Precip Events Conditions
12:53 AM 75.0 °F - 66.0 °F 73% 29.88 in 10.0 mi SSW 11.5 mph - N/A   Clear
1:53 AM 75.0 °F - 66.0 °F 73% 29.87 in 10.0 mi SSW 12.7 mph - N/A   Clear
2:53 AM 73.9 °F - 66.0 °F 76% 29.87 in 10.0 mi SW 10.4 mph - N/A   Clear
3:53 AM 73.0 °F - 66.0 °F 79% 29.87 in 10.0 mi SW 11.5 mph - N/A   Clear
4:53 AM 72.0 °F - 66.0 °F 81% 29.87 in 10.0 mi SSW 10.4 mph - N/A   Clear
5:53 AM 71.1 °F - 66.9 °F 87% 29.88 in 10.0 mi SSW 8.1 mph - N/A   Clear
6:53 AM 72.0 °F - 68.0 °F 87% 29.90 in 10.0 mi SSW 9.2 mph - N/A   Clear
7:53 AM 75.9 °F - 69.1 °F 79% 29.91 in 10.0 mi SW 12.7 mph - N/A   Clear
8:53 AM 75.9 °F - 70.0 °F 82% 29.92 in 10.0 mi SSW 11.5 mph - N/A   Clear
9:53 AM 81.0 °F 84.9 °F 71.1 °F 72% 29.90 in 10.0 mi SSW 12.7 mph 18.4 mph N/A   Clear
10:53 AM 84.0 °F 90.2 °F 73.0 °F 69% 29.88 in 10.0 mi SSW 15.0 mph 20.7 mph N/A   Clear
11:53 AM 87.1 °F 95.4 °F 73.9 °F 65% 29.86 in 10.0 mi SSW 16.1 mph 23.0 mph N/A   Clear
12:53 PM 88.0 °F 95.6 °F 73.0 °F 61% 29.84 in 10.0 mi SSW 12.7 mph 25.3 mph N/A   Clear
1:53 PM 89.1 °F 96.0 °F 72.0 °F 57% 29.83 in 10.0 mi SW 17.3 mph 25.3 mph N/A   Clear
2:53 PM 89.1 °F 96.0 °F 72.0 °F 57% 29.81 in 10.0 mi SW 19.6 mph 28.8 mph N/A   Clear
3:53 PM 89.1 °F 95.0 °F 71.1 °F 55% 29.79 in 10.0 mi SW 20.7 mph 26.5 mph N/A   Clear
4:53 PM 89.1 °F 95.0 °F 71.1 °F 55% 29.79 in 10.0 mi SW 18.4 mph - N/A   Clear
5:53 PM 87.1 °F 91.3 °F 69.1 °F 55% 29.79 in 10.0 mi SW 17.3 mph 27.6 mph N/A   Clear
6:53 PM 84.0 °F 88.4 °F 70.0 °F 63% 29.79 in 10.0 mi WSW 11.5 mph - N/A   Mostly Cloudy
7:53 PM 84.0 °F 86.5 °F 66.9 °F 56% 29.78 in 10.0 mi SW 11.5 mph - N/A   Overcast
8:53 PM 82.9 °F 85.4 °F 66.9 °F 58% 29.78 in 10.0 mi SW 11.5 mph - N/A   Scattered Clouds
9:53 PM 81.0 °F 83.3 °F 66.9 °F 62% 29.79 in 10.0 mi SW 11.5 mph - N/A   Partly Cloudy
10:53 PM 80.1 °F 82.7 °F 68.0 °F 67% 29.80 in 10.0 mi SW 11.5 mph - N/A   Clear
11:53 PM 78.1 °F - 69.1 °F 74% 29.80 in 10.0 mi SW 11.5 mph - N/A   Clear